1496034000.97,12969,17.56,74300.8,16.49,-28.43,-28.53,0,*43
1496034002.25,12970,17.56,74302.0,16.47,-28.75,-28.79,0,*48
1496034003.49,12971,17.56,74300.5,16.51,-28.53,-28.53,0,*42
1496034004.72,12972,17.56,74304.0,16.51,-28.31,-28.37,0,*47
1496034005.95,12973,17.56,74300.8,16.53,-28.63,-28.69,0,*48
1496034007.18,12974,17.56,74300.0,16.53,-28.63,-28.69,0,*4F
1496034008.41,12975,17.56,74304.0,16.53,-28.37,-28.47,0,*43
1496034009.66,12976,17.56,74302.8,16.53,-29.01,-29.29,0,*4D
1496034010.94,12977,17.56,74300.0,16.59,-28.63,-28.75,0,*4B
1496034012.22,12978,17.56,74304.0,16.59,-28.63,-28.91,0,*4E
1496034013.49,12979,17.56,74302.5,16.55,-29.45,-29.51,0,*4B
1496034014.71,12980,17.56,74302.8,16.55,-28.97,-28.97,0,*48
1496034015.96,12981,17.56,74298.3,16.55,-28.47,-28.53,0,*4C
1496034017.22,12982,17.56,74300.3,16.55,-28.37,-28.47,0,*4D
1496034018.5,12983,17.56,74300.0,16.59,-28.63,-28.75,0,*40
1496034019.77,12984,17.56,74302.0,16.59,-28.75,-28.75,0,*40
1496034020.99,12985,17.56,74302.0,16.61,-28.69,-28.75,0,*47
1496034022.25,12986,17.56,74302.8,16.59,-27.93,-28.09,0,*4E
1496034023.52,12987,17.56,74300.0,16.59,-28.25,-28.31,0,*46
1496034024.77,12988,17.56,74302.5,16.61,-29.17,-29.17,0,*47
1496034026.02,12989,17.56,74302.5,16.63,-28.75,-28.85,0,*4B
1496034027.28,12990,17.56,74300.5,16.63,-28.37,-28.43,0,*4F
1496034028.52,12991,17.56,74304.5,16.63,-28.43,-28.37,0,*4E
1496034029.77,12992,17.56,74302.5,16.63,-28.69,-28.75,0,*43
1496034031.03,12993,17.63,74306.0,16.63,-28.69,-28.59,0,*4C
1496034032.27,12994,17.56,74300.3,16.63,-29.07,-29.17,0,*49
1496034033.51,12995,17.56,74300.5,16.65,-28.69,-28.63,0,*45
1496034034.74,12996,17.56,74302.3,16.65,-28.37,-28.47,0,*4B
1496034036.0,12997,17.56,74300.3,16.67,-28.25,-28.31,0,*4A
1496034037.23,12998,17.56,74302.5,16.67,-28.97,-28.97,0,*40
1496034038.52,12999,17.56,74300.3,16.67,-28.59,-28.63,0,*48
1496034039.81,13000,17.56,74300.5,16.67,-28.59,-28.59,0,*49
1496034041.05,13001,17.56,74304.3,16.67,-30.27,-30.33,0,*4D
1496034042.3,13002,17.56,74302.0,16.65,-30.61,-30.73,0,*4A
1496034043.57,13003,17.56,74300.8,16.67,-29.45,-29.35,0,*4D
1496034044.78,13004,17.63,74306.0,16.65,-29.67,-29.83,0,*45
1496034046.04,13005,17.56,74304.0,16.65,-30.73,-30.77,0,*4A
1496034047.25,13006,17.56,74302.5,16.65,-29.57,-29.57,0,*4D
1496034048.48,13007,17.63,74306.5,16.63,-28.53,-28.53,0,*4A
1496034049.71,13008,17.56,74304.3,16.63,-29.79,-29.79,0,*45
1496034050.91,13009,17.56,74300.5,16.61,-29.61,-29.57,0,*43
1496034052.17,13010,17.56,74302.8,16.63,-29.01,-28.85,0,*41
1496034053.41,13011,17.56,74298.0,16.65,-29.51,-29.57,0,*4D
1496034054.63,13012,17.56,74304.8,16.65,-29.13,-28.97,0,*45
1496034055.84,13013,17.63,74304.0,16.65,-28.85,-28.85,0,*49
1496034057.06,13014,17.56,74302.8,16.65,-29.57,-29.67,0,*4D
1496034058.32,13015,17.56,74298.3,16.65,-29.35,-29.35,0,*4F
1496034059.54,13016,17.63,74306.0,16.65,-29.13,-28.97,0,*41
1496034060.8,13017,17.56,74300.5,16.63,-29.35,-29.23,0,*4C
1496034062.02,13018,17.56,74302.0,16.65,-28.47,-28.37,0,*45
1496034063.28,13019,17.63,74304.3,16.65,-29.39,-29.39,0,*43
1496034064.53,13020,17.63,74306.3,16.65,-29.35,-29.29,0,*44
1496034065.75,13021,17.56,74302.0,16.63,-29.07,-29.07,0,*4E
1496034067.0,13022,17.56,74300.3,16.65,-29.13,-29.13,0,*4B
1496034068.24,13023,17.56,74300.8,16.65,-29.17,-29.13,0,*4E
1496034069.51,13024,17.63,74304.3,16.67,-29.51,-29.57,0,*49
1496034070.76,13025,17.63,74308.0,16.65,-30.05,-29.89,0,*40
1496034071.96,13026,17.63,74304.3,16.65,-30.33,-30.23,0,*4E
1496034073.19,13027,17.56,74302.3,16.65,-30.01,-29.83,0,*4C
1496034074.44,13028,17.63,74306.5,16.63,-30.45,-30.39,0,*4C
1496034075.66,13029,17.56,74302.5,16.63,-30.23,-30.23,0,*46
1496034076.94,13030,17.63,74306.0,16.63,-28.91,-28.75,0,*44
1496034078.19,13031,17.56,74300.3,16.61,-28.91,-28.75,0,*47
1496034079.44,13032,17.63,74306.3,16.61,-29.17,-29.01,0,*49
1496034080.7,13033,17.63,74306.0,16.63,-29.01,-28.85,0,*40
1496034081.95,13034,17.56,74304.0,16.63,-29.45,-29.39,0,*41
1496034083.21,13035,17.56,74302.8,16.63,-29.45,-29.35,0,*4C
1496034084.45,13036,17.56,74304.0,16.63,-29.57,-29.45,0,*4B
1496034085.67,13037,17.63,74304.5,16.61,-30.45,-30.39,0,*40
1496034086.9,13038,17.63,74304.3,16.63,-29.95,-29.95,0,*46
1496034088.15,13039,17.56,74302.5,16.63,-29.89,-29.79,0,*48
1496034089.37,13040,17.56,74302.0,16.61,-30.39,-30.27,0,*44
1496034090.57,13041,17.56,74302.5,16.61,-29.79,-29.61,0,*43
1496034091.83,13042,17.63,74306.0,16.61,-29.35,-29.35,0,*49
1496034093.09,13043,17.56,74304.3,16.61,-30.05,-29.89,0,*44
1496034094.31,13044,17.63,74306.5,16.61,-29.89,-29.79,0,*40
1496034095.56,13045,17.63,74304.8,16.61,-30.05,-30.05,0,*4E
1496034096.82,13046,17.56,74300.0,16.59,-29.39,-29.23,0,*4D
1496034098.07,13047,17.63,74306.5,16.59,-28.97,-28.75,0,*4B
1496034099.36,13048,17.56,74302.0,16.59,-28.43,-28.25,0,*48
1496034100.61,13049,17.56,74300.5,16.61,-28.05,-27.83,0,*43
1496034101.84,13050,17.56,74300.3,16.61,-27.99,-27.71,0,*4C
1496034103.07,13051,17.56,74302.5,16.63,-27.89,-27.67,0,*49
1496034104.32,13052,17.56,74302.0,16.63,-27.55,-27.35,0,*4C
1496034105.55,13053,17.63,74306.5,16.65,-28.09,-27.77,0,*4B
1496034106.81,13054,17.56,74300.0,16.67,-28.15,-28.05,0,*49
1496034108.09,13055,17.63,74306.3,16.67,-28.09,-28.09,0,*49
1496034109.32,13056,17.56,74302.5,16.67,-28.15,-27.93,0,*4B
1496034110.55,13057,17.56,74304.5,16.69,-28.59,-28.37,0,*4D
1496034111.76,13058,17.56,74300.3,16.69,-28.53,-28.37,0,*48
1496034112.99,13059,17.56,74300.5,16.69,-28.37,-28.21,0,*4C
1496034114.22,13060,17.56,74304.3,16.71,-28.85,-28.53,0,*43
1496034115.45,13061,17.63,74304.3,16.71,-29.79,-29.61,0,*40
1496034116.7,13062,17.56,74302.8,16.71,-30.23,-30.05,0,*4E
1496034117.92,13063,17.56,74302.3,16.69,-29.17,-29.07,0,*43
1496034119.15,13064,17.56,74300.5,16.69,-29.39,-29.23,0,*4E
1496034120.41,13065,17.56,74304.0,16.69,-29.39,-29.17,0,*48
1496034121.63,13066,17.63,74304.0,16.69,-29.07,-28.75,0,*43
1496034122.9,13067,17.56,74302.3,16.71,-29.29,-29.17,0,*42
1496034124.13,13068,17.56,74304.5,16.69,-29.57,-29.29,0,*40
1496034125.38,13069,17.63,74304.8,16.69,-29.01,-28.75,0,*4A
1496034126.61,13070,17.63,74304.8,16.69,-29.89,-29.57,0,*43
1496034127.84,13071,17.56,74302.5,16.67,-31.17,-31.01,0,*48
1496034129.08,13072,17.56,74302.5,16.69,-30.61,-30.67,0,*44
1496034130.33,13073,17.56,74302.8,16.65,-31.23,-30.95,0,*43
1496034131.56,13074,17.56,74302.5,16.65,-30.77,-30.45,0,*49
1496034132.79,13075,17.56,74300.5,16.65,-30.23,-29.89,0,*41
1496034134.03,13076,17.56,74302.5,16.63,-30.39,-30.11,0,*46
1496034135.3,13077,17.63,74304.3,16.61,-30.95,-30.77,0,*43
1496034136.49,13078,17.56,74302.3,16.61,-30.45,-30.27,0,*44
1496034137.72,13079,17.63,74306.0,16.61,-29.95,-29.73,0,*49
1496034138.98,13080,17.63,74304.3,16.61,-29.73,-29.35,0,*45
1496034140.21,13081,17.63,74306.3,16.61,-29.01,-28.53,0,*40
1496034141.44,13082,17.63,74306.0,16.61,-28.43,-27.89,0,*4C
1496034142.72,13083,17.56,74302.5,16.63,-28.21,-27.99,0,*4A
1496034143.95,13084,17.56,74302.5,16.65,-29.17,-28.97,0,*4E
1496034145.17,13085,17.56,74300.3,16.65,-29.29,-28.97,0,*42
1496034146.42,13086,17.56,74302.3,16.65,-29.13,-28.79,0,*48
1496034147.68,13087,17.63,74306.5,16.63,-28.53,-28.21,0,*47
1496034148.88,13088,17.56,74302.5,16.65,-28.85,-28.53,0,*40
1496034150.17,13089,17.63,74306.5,16.67,-28.63,-28.25,0,*4A
1496034151.43,13090,17.56,74296.8,16.67,-29.67,-29.35,0,*47
1496034152.72,13091,17.56,74304.8,16.67,-30.51,-30.17,0,*43
1496034153.94,13092,17.56,74300.3,16.65,-30.23,-30.05,0,*44
1496034155.17,13093,17.56,74300.8,16.65,-29.83,-29.39,0,*40
1496034156.38,13094,17.56,74300.0,16.65,-28.85,-28.53,0,*4D
1496034157.64,13095,17.63,74304.0,16.65,-28.63,-28.21,0,*41
1496034158.9,13096,17.56,74302.5,16.67,-28.97,-28.59,0,*44
1496034160.12,13097,17.56,74304.3,16.65,-28.31,-27.83,0,*43
1496034161.41,13098,17.56,74302.0,16.67,-28.43,-28.05,0,*4A
1496034162.69,13099,17.56,74302.5,16.67,-29.13,-28.75,0,*48
1496034163.94,13100,17.56,74302.8,16.67,-29.29,-28.97,0,*4C
1496034165.2,13101,17.63,74306.8,16.67,-28.97,-28.59,0,*4B
1496034166.45,13102,17.56,74304.5,16.67,-29.45,-29.13,0,*49
1496034167.71,13103,17.56,74302.5,16.67,-29.67,-29.29,0,*41
1496034168.95,13104,17.63,74306.3,16.69,-29.17,-28.75,0,*47
1496034170.22,13105,17.63,74306.3,16.67,-28.97,-28.63,0,*46
1496034171.47,13106,17.63,74304.0,16.67,-29.29,-28.97,0,*4A
1496034172.75,13107,17.56,74302.0,16.67,-29.51,-29.13,0,*49
1496034173.98,13108,17.56,74300.0,16.69,-29.17,-28.69,0,*46
1496034175.24,13109,17.56,74304.5,16.67,-28.75,-28.15,0,*47
1496034176.47,13110,17.56,74302.8,16.69,-27.99,-27.67,0,*46
1496034177.7,13111,17.56,74300.8,16.69,-28.21,-27.71,0,*4C
1496034178.96,13112,17.56,74302.3,16.71,-28.21,-27.71,0,*46
1496034180.22,13113,17.56,74302.3,16.71,-28.05,-27.67,0,*46
1496034181.46,13114,17.56,74300.8,16.73,-28.05,-27.67,0,*43
1496034182.71,13115,17.56,74302.5,16.73,-29.01,-28.47,0,*4A
1496034183.94,13116,17.56,74300.3,16.73,-29.13,-28.69,0,*46
1496034185.19,13117,17.56,74302.5,16.73,-28.79,-27.99,0,*4A
1496034186.42,13118,17.63,74304.0,16.73,-27.67,-27.19,0,*4D
1496034187.65,13119,17.56,74302.0,16.75,-28.15,-27.77,0,*48
1496034188.91,13120,17.56,74302.0,16.75,-28.53,-28.05,0,*4A
1496034190.14,13121,17.56,74302.5,16.77,-28.31,-27.89,0,*46
1496034191.42,13122,17.56,74304.5,16.77,-28.91,-28.43,0,*46
1496034192.71,13123,17.56,74300.5,16.77,-28.91,-28.43,0,*47
1496034193.96,13124,17.56,74304.8,16.81,-27.93,-27.39,0,*46
1496034195.24,13125,17.56,74300.5,16.77,-27.99,-27.45,0,*4F
1496034196.47,13126,17.56,74302.3,16.81,-28.37,-27.89,0,*4E
1496034197.73,13127,17.56,74302.8,16.81,-28.91,-28.37,0,*49
1496034198.99,13128,17.56,74302.5,16.83,-27.99,-27.35,0,*4E
1496034200.25,13129,17.56,74302.5,16.81,-28.09,-27.55,0,*4D
1496034201.5,13130,17.56,74300.5,16.81,-28.43,-27.93,0,*41
1496034202.73,13131,17.56,74302.5,16.83,-29.01,-28.53,0,*46
1496034203.97,13132,17.63,74304.3,16.83,-29.39,-28.97,0,*46
1496034205.21,13133,17.56,74302.0,16.83,-29.51,-28.85,0,*4A
1496034206.46,13134,17.63,74306.3,16.83,-30.01,-29.39,0,*46
1496034207.72,13135,17.56,74300.8,16.81,-30.27,-29.73,0,*4F
1496034208.94,13136,17.56,74300.8,16.77,-30.11,-29.61,0,*43
1496034210.19,13137,17.63,74304.0,16.81,-29.79,-29.13,0,*48
1496034211.44,13138,17.56,74302.8,16.77,-29.07,-28.43,0,*43
1496034212.68,13139,17.56,74304.3,16.81,-28.69,-27.89,0,*4B
1496034213.93,13140,17.63,74304.0,16.77,-28.47,-27.89,0,*40
1496034215.21,13141,17.56,74304.3,16.81,-28.25,-27.83,0,*46
1496034216.46,13142,17.56,74304.3,16.83,-27.83,-27.19,0,*47
1496034217.75,13143,17.56,74300.8,16.85,-27.61,-26.97,0,*4B
1496034219.0,13144,17.56,74302.5,16.85,-28.05,-27.51,0,*4A
1496034220.26,13145,17.56,74304.0,16.87,-27.99,-27.23,0,*46
1496034221.48,13146,17.56,74302.5,16.85,-27.77,-27.13,0,*44
1496034222.73,13147,17.56,74304.3,16.85,-28.15,-27.61,0,*4B
1496034223.94,13148,17.56,74304.8,16.87,-28.31,-27.71,0,*41
1496034225.14,13149,17.56,74306.5,16.87,-28.31,-27.71,0,*40
1496034226.4,13150,17.63,74304.0,16.89,-27.93,-27.23,0,*46
1496034227.63,13151,17.56,74300.0,16.89,-28.31,-27.77,0,*41
1496034228.91,13152,17.56,74304.3,16.89,-28.75,-28.09,0,*44
1496034230.2,13153,17.56,74304.3,16.89,-28.79,-27.99,0,*4F
1496034231.48,13154,17.63,74306.0,16.89,-28.75,-28.09,0,*42
1496034232.76,13155,17.63,74306.3,16.89,-29.01,-28.43,0,*4F
1496034234.05,13156,17.56,74304.3,16.89,-29.13,-28.59,0,*44
1496034235.33,13157,17.56,74302.8,16.89,-29.13,-28.59,0,*45
1496034236.57,13158,17.63,74306.5,16.87,-28.79,-28.15,0,*41
1496034237.82,13159,17.56,74300.3,16.89,-28.75,-27.93,0,*43
1496034239.09,13160,17.63,74306.3,16.89,-28.91,-28.15,0,*42
1496034240.35,13161,17.56,74300.8,16.89,-28.59,-27.93,0,*46
1496034241.57,13162,17.63,74304.5,16.91,-28.47,-27.89,0,*48
1496034242.81,13163,17.56,74300.8,16.91,-28.97,-28.21,0,*49
1496034244.04,13164,17.63,74302.8,16.91,-29.07,-28.43,0,*42
1496034245.31,13165,17.56,74302.3,16.93,-27.99,-27.19,0,*48
1496034246.54,13166,17.56,74302.3,16.91,-28.43,-27.77,0,*49
1496034247.8,13167,17.63,74306.0,16.91,-28.75,-28.05,0,*47
1496034249.06,13168,17.56,74300.0,16.91,-28.75,-28.05,0,*48
1496034250.29,13169,17.63,74304.0,16.91,-28.25,-27.51,0,*42
1496034251.52,13170,17.63,74306.8,16.95,-28.47,-27.67,0,*4F
1496034252.75,13171,17.63,74306.5,16.95,-28.59,-27.77,0,*40
1496034253.98,13172,17.63,74306.3,16.95,-28.97,-28.25,0,*49
1496034255.24,13173,17.63,74304.3,16.95,-28.79,-27.99,0,*40
1496034256.47,13174,17.63,74304.0,16.95,-29.45,-28.63,0,*43
1496034257.73,13175,17.56,74302.0,16.93,-29.83,-29.01,0,*4B
1496034258.95,13176,17.63,74304.3,16.93,-29.23,-28.37,0,*46
1496034260.21,13177,17.63,74304.0,16.91,-29.29,-28.59,0,*47
1496034261.46,13178,17.63,74304.8,16.93,-30.77,-30.27,0,*49
1496034262.69,13179,17.63,74304.0,16.91,-31.67,-30.95,0,*43
1496034263.95,13180,17.63,74306.5,16.89,-29.83,-29.13,0,*49
1496034265.21,13181,17.56,74302.5,16.89,-29.13,-28.31,0,*40
1496034266.47,13182,17.63,74304.8,16.89,-29.79,-28.91,0,*45
1496034267.72,13183,17.63,74306.5,16.87,-29.51,-28.75,0,*4A
1496034268.96,13184,17.63,74306.0,16.87,-29.61,-28.91,0,*44
1496034270.19,13185,17.63,74306.0,16.87,-28.97,-28.09,0,*4C
1496034271.45,13186,17.56,74300.3,16.89,-28.63,-27.77,0,*4C
1496034272.68,13187,17.56,74302.5,16.87,-28.79,-27.93,0,*42
1496034273.93,13188,17.56,74302.3,16.89,-28.75,-27.93,0,*4F
1496034275.22,13189,17.56,74302.3,16.89,-28.79,-27.99,0,*48
1496034276.47,13190,17.63,74304.8,16.89,-28.59,-27.77,0,*42
1496034277.73,13191,17.63,74304.0,16.89,-28.79,-27.93,0,*4B
1496034279.01,13192,17.63,74306.3,16.89,-28.63,-27.83,0,*42
1496034280.27,13193,17.63,74306.0,16.91,-29.01,-28.09,0,*42
1496034281.53,13194,17.56,74300.5,16.93,-28.85,-27.99,0,*4C
1496034282.76,13195,17.56,74302.5,16.91,-29.29,-28.53,0,*41
1496034284.04,13196,17.56,74302.8,16.93,-29.73,-29.01,0,*49
1496034285.24,13197,17.56,74302.0,16.91,-29.95,-29.07,0,*44
1496034286.47,13198,17.56,74300.5,16.91,-30.27,-29.29,0,*46
1496034287.7,13199,17.63,74302.3,16.91,-29.07,-28.25,0,*40
1496034288.96,13200,17.56,74304.0,16.91,-29.29,-28.59,0,*44
1496034290.2,13201,17.56,74304.5,16.91,-29.45,-28.59,0,*4F
1496034291.42,13202,17.63,74304.0,16.91,-30.61,-29.79,0,*41
1496034292.63,13203,17.56,74300.3,16.87,-31.05,-30.33,0,*42
1496034293.83,13204,17.56,74302.5,16.87,-31.05,-30.23,0,*44
1496034295.09,13205,17.63,74304.5,16.87,-30.89,-30.01,0,*40
1496034296.32,13206,17.56,74300.0,16.83,-29.07,-28.21,0,*42
1496034297.61,13207,17.56,74300.3,16.85,-29.01,-28.05,0,*45
1496034298.89,13208,17.56,74300.8,16.85,-29.01,-28.21,0,*4C
1496034300.15,13209,17.63,74306.5,16.85,-29.51,-28.53,0,*4D
1496034301.4,13210,17.56,74302.3,16.85,-29.89,-29.07,0,*40
1496034302.66,13211,17.56,74302.3,16.85,-30.27,-29.51,0,*4E
1496034303.9,13212,17.63,74306.3,16.85,-31.05,-30.05,0,*45
1496034305.12,13213,17.63,74304.8,16.83,-29.83,-28.85,0,*44
1496034306.35,13214,17.63,74304.3,16.83,-29.73,-28.85,0,*4C
1496034307.56,13215,17.56,74300.3,16.83,-29.67,-28.69,0,*4A
1496034308.8,13216,17.56,74300.8,16.83,-29.35,-28.53,0,*47
1496034310.04,13217,17.56,74300.3,16.83,-29.51,-28.53,0,*44
1496034311.29,13218,17.56,74302.5,16.81,-30.05,-29.07,0,*40
1496034312.52,13219,17.56,74300.8,16.81,-29.61,-28.69,0,*42
1496034313.73,13220,17.56,74300.5,16.83,-29.07,-28.15,0,*41
1496034314.99,13221,17.56,74302.3,16.81,-29.01,-27.93,0,*45
1496034316.22,13222,17.63,74306.5,16.81,-29.79,-28.85,0,*41
1496034317.5,13223,17.56,74302.0,16.77,-29.29,-28.43,0,*46
1496034318.76,13224,17.63,74304.0,16.83,-29.01,-28.05,0,*42
1496034319.97,13225,17.56,74302.3,16.83,-28.15,-27.29,0,*46
1496034321.21,13226,17.56,74300.3,16.83,-29.07,-28.21,0,*40
1496034322.47,13227,17.56,74300.3,16.83,-29.01,-28.05,0,*41
1496034323.68,13228,17.56,74300.0,16.83,-29.07,-28.15,0,*49
1496034324.9,13229,17.56,74300.8,16.83,-28.69,-27.67,0,*4B
1496034326.16,13230,17.63,74306.3,16.83,-28.79,-27.61,0,*44
1496034327.38,13231,17.63,74304.5,16.85,-28.69,-27.77,0,*45
1496034328.66,13232,17.63,74304.0,16.85,-29.01,-27.99,0,*49
1496034329.89,13233,17.63,74306.3,16.83,-28.47,-27.51,0,*49
1496034331.11,13234,17.56,74302.5,16.85,-28.15,-27.13,0,*49
1496034332.39,13235,17.63,74304.3,16.85,-27.83,-26.81,0,*42
1496034333.65,13236,17.63,74302.3,16.89,-27.93,-26.97,0,*4B
1496034334.88,13237,17.63,74302.8,16.87,-28.09,-27.13,0,*45
1496034336.14,13238,17.56,74300.8,16.89,-29.13,-28.15,0,*47
1496034337.42,13239,17.56,74302.5,16.89,-28.59,-27.61,0,*45
1496034338.67,13240,17.63,74302.3,16.89,-28.31,-27.45,0,*43
1496034339.95,13241,17.63,74302.5,16.89,-27.99,-26.93,0,*45
1496034341.16,13242,17.56,74302.5,16.91,-27.67,-26.65,0,*47
1496034342.4,13243,17.63,74304.5,16.91,-28.09,-27.07,0,*44
1496034343.62,13244,17.56,74300.8,16.93,-27.89,-26.87,0,*4F
1496034344.87,13245,17.63,74304.3,16.93,-27.45,-26.45,0,*40
1496034346.12,13246,17.56,74300.5,16.93,-27.71,-26.71,0,*43
1496034347.35,13247,17.56,74298.0,16.95,-27.77,-26.81,0,*4D
1496034348.61,13248,17.56,74302.5,16.95,-28.59,-27.61,0,*4E
1496034349.86,13249,17.56,74300.3,16.95,-28.79,-27.83,0,*41
1496034351.09,13250,17.56,74300.8,16.97,-28.85,-27.93,0,*49
1496034352.32,13251,17.56,74302.5,16.95,-28.59,-27.55,0,*41
1496034353.58,13252,17.56,74302.5,16.97,-28.75,-27.67,0,*4F
1496034354.81,13253,17.56,74302.0,16.95,-29.01,-27.77,0,*4F
1496034356.06,13254,17.63,74304.0,16.97,-28.25,-27.13,0,*4F
1496034357.29,13255,17.63,74304.0,16.95,-28.97,-27.99,0,*47
1496034358.53,13256,17.63,74302.5,16.95,-29.01,-28.15,0,*41
1496034359.78,13257,17.63,74304.5,16.95,-28.63,-27.61,0,*49
1496034361.01,13258,17.63,74306.0,16.95,-28.97,-28.09,0,*4C
1496034362.27,13259,17.56,74302.8,16.95,-29.01,-28.09,0,*43
1496034363.55,13260,17.63,74304.0,16.97,-29.13,-27.99,0,*4E
1496034364.8,13261,17.63,74302.3,16.95,-28.63,-27.61,0,*4C
1496034366.03,13262,17.56,74302.5,16.95,-28.59,-27.55,0,*41
1496034367.26,13263,17.63,74300.5,16.95,-29.01,-27.93,0,*46
1496034368.49,13264,17.56,74300.5,16.95,-28.75,-27.77,0,*49
1496034369.74,13265,17.56,74300.3,16.95,-28.43,-27.23,0,*4C
1496034370.99,13266,17.56,74300.8,16.95,-28.59,-27.61,0,*42
1496034372.25,13267,17.63,74302.3,16.95,-29.13,-28.09,0,*4D
1496034373.47,13268,17.56,74302.0,16.95,-28.97,-27.83,0,*42
1496034374.7,13269,17.56,74300.8,16.95,-28.75,-27.67,0,*45
1496034375.93,13270,17.56,74300.0,16.95,-29.01,-27.93,0,*44
1496034377.21,13271,17.63,74302.8,16.93,-29.17,-27.99,0,*4E
1496034378.47,13272,17.56,74300.0,16.95,-29.01,-27.83,0,*47
1496034379.7,13273,17.63,74306.3,16.95,-28.43,-27.29,0,*41
1496034380.95,13274,17.63,74304.0,16.95,-28.63,-27.45,0,*4E
1496034382.18,13275,17.63,74304.3,16.95,-28.25,-27.13,0,*4E
1496034383.41,13276,17.63,74304.0,16.95,-28.47,-27.29,0,*40
1496034384.63,13277,17.56,74296.8,16.95,-28.47,-27.29,0,*41
1496034385.88,13278,17.63,74304.5,16.95,-28.59,-27.45,0,*4B
1496034387.14,13279,17.56,74300.5,16.97,-28.25,-27.07,0,*45
1496034388.4,13280,17.56,74300.8,16.97,-28.31,-27.39,0,*4B
1496034389.67,13281,17.56,74302.8,16.97,-28.47,-27.39,0,*4B
1496034390.94,13282,17.56,74302.3,16.97,-28.47,-27.39,0,*48
1496034392.2,13283,17.56,74300.0,16.97,-28.25,-27.07,0,*40
1496034393.48,13284,17.56,74300.8,16.97,-28.47,-27.39,0,*4E
1496034394.71,13285,17.56,74296.5,16.97,-28.85,-27.77,0,*4B
1496034395.94,13286,17.56,74302.8,16.97,-28.85,-27.93,0,*42
1496034397.15,13287,17.63,74302.8,16.99,-28.53,-27.51,0,*48
1496034398.39,13288,17.56,74302.3,16.99,-28.53,-27.39,0,*49
1496034399.65,13289,17.56,74302.0,16.99,-28.21,-27.19,0,*4F
1496034400.9,13290,17.63,74302.3,16.97,-28.75,-27.55,0,*40
1496034402.16,13291,17.63,74302.3,16.99,-28.59,-27.61,0,*46
1496034403.41,13292,17.56,74300.0,16.99,-28.43,-27.35,0,*4F
1496034404.67,13293,17.63,74304.5,16.99,-28.05,-26.93,0,*41
1496034405.93,13294,17.56,74302.8,16.99,-28.05,-26.93,0,*46
1496034407.17,13295,17.63,74302.3,16.99,-28.53,-27.39,0,*45
1496034408.4,13296,17.63,74304.0,16.99,-28.09,-27.03,0,*40
1496034409.66,13297,17.63,74302.8,16.99,-28.09,-27.19,0,*4A
1496034410.87,13298,17.56,74302.3,16.99,-28.53,-27.51,0,*46
1496034412.11,13299,17.56,74302.0,17.01,-28.31,-27.19,0,*4F
1496034413.37,13300,17.56,74300.0,16.99,-28.43,-27.35,0,*45
1496034414.62,13301,17.56,74300.8,17.01,-30.27,-29.17,0,*41
1496034415.85,13302,17.63,74300.8,16.99,-30.83,-29.73,0,*4E
1496034417.08,13303,17.56,74302.3,16.95,-31.29,-30.17,0,*48
1496034418.34,13304,17.63,74302.3,16.95,-31.11,-30.05,0,*47
1496034419.59,13305,17.56,74300.3,16.95,-29.89,-28.79,0,*4C
1496034420.81,13306,17.56,74302.0,16.93,-30.23,-29.07,0,*49
1496034422.03,13307,17.63,74300.8,16.91,-30.17,-29.07,0,*4D
1496034423.26,13308,17.56,74300.5,16.91,-31.51,-30.45,0,*4F
1496034424.52,13309,17.63,74302.0,16.87,-31.57,-30.39,0,*44
1496034425.73,13310,17.63,74302.0,16.87,-30.83,-29.67,0,*47
1496034427.0,13311,17.63,74302.0,16.85,-30.55,-29.35,0,*48
1496034428.23,13312,17.56,74300.8,16.83,-30.01,-28.97,0,*45
1496034429.45,13313,17.63,74302.0,16.83,-30.01,-29.07,0,*4C
1496034430.68,13314,17.56,74302.5,16.83,-30.89,-29.83,0,*47
1496034431.91,13315,17.56,74300.0,16.81,-30.27,-29.07,0,*4C
1496034433.19,13316,17.63,74302.8,16.81,-29.29,-28.09,0,*46
1496034434.45,13317,17.63,74302.0,16.81,-28.59,-27.51,0,*43
1496034435.71,13318,17.56,74300.5,16.81,-28.53,-27.39,0,*48
1496034436.96,13319,17.56,74300.8,16.81,-28.75,-27.67,0,*46
1496034438.25,13320,17.56,74300.0,16.81,-29.29,-28.21,0,*49
1496034439.5,13321,17.56,74302.8,16.81,-29.95,-28.75,0,*4E
1496034440.75,13322,17.63,74302.3,16.77,-29.83,-28.75,0,*43
1496034442.03,13323,17.63,74300.3,16.77,-30.01,-28.91,0,*4A
1496034443.3,13324,17.56,74302.5,16.77,-30.51,-29.29,0,*4A
1496034444.56,13325,17.56,74300.0,16.77,-29.83,-28.63,0,*43
1496034445.81,13326,17.56,74302.3,16.75,-30.01,-28.69,0,*4A
1496034447.02,13327,17.63,74302.8,16.73,-28.97,-27.67,0,*4A
1496034448.22,13328,17.63,74302.8,16.73,-28.31,-27.13,0,*4A
1496034449.5,13329,17.63,74304.3,16.75,-27.99,-26.93,0,*49
1496034450.78,13330,17.63,74302.8,16.75,-27.99,-26.93,0,*41
1496034452.06,13331,17.56,74302.0,16.81,-28.05,-26.97,0,*45
1496034453.32,13332,17.63,74300.5,16.77,-28.15,-26.97,0,*4E
1496034454.57,13333,17.56,74300.0,16.77,-27.71,-26.55,0,*4C
1496034455.83,13334,17.63,74306.3,16.81,-27.55,-26.33,0,*44
1496034457.06,13335,17.56,74300.5,16.83,-27.29,-26.13,0,*4E
1496034458.3,13336,17.63,74302.3,16.83,-27.61,-26.45,0,*42
1496034459.51,13337,17.63,74302.8,16.83,-27.89,-26.87,0,*4B
1496034460.72,13338,17.63,74302.3,16.83,-27.67,-26.49,0,*46
1496034461.94,13339,17.63,74304.3,16.85,-27.77,-26.65,0,*4E
1496034463.17,13340,17.63,74302.8,16.85,-27.77,-26.61,0,*44
1496034464.39,13341,17.63,74304.0,16.85,-27.67,-26.49,0,*4E
1496034465.65,13342,17.63,74304.0,16.85,-27.89,-26.77,0,*40
1496034466.9,13343,17.56,74302.8,16.85,-27.61,-26.45,0,*46
1496034468.16,13344,17.56,74300.5,16.85,-27.29,-26.13,0,*4E
1496034469.39,13345,17.63,74302.8,16.87,-27.39,-26.23,0,*4F
1496034470.63,13346,17.63,74300.8,16.87,-27.93,-26.81,0,*44
1496034471.86,13347,17.63,74304.8,16.87,-27.29,-26.29,0,*46
1496034473.1,13348,17.63,74302.3,16.87,-27.61,-26.45,0,*4F
1496034474.34,13349,17.56,74302.0,16.89,-27.55,-26.39,0,*4C
1496034475.57,13350,17.56,74300.5,16.87,-27.77,-26.71,0,*46
1496034476.83,13351,17.56,74300.5,16.89,-27.77,-26.77,0,*4F
1496034478.06,13352,17.63,74302.0,16.89,-28.15,-27.13,0,*44
1496034479.32,13353,17.63,74302.3,16.89,-27.77,-26.77,0,*4D
1496034480.52,13354,17.63,74302.0,16.91,-27.67,-26.49,0,*4F
1496034481.76,13355,17.56,74300.0,16.91,-27.55,-26.33,0,*42
1496034482.99,13356,17.56,74302.8,16.91,-27.39,-26.39,0,*41
1496034484.25,13357,17.63,74304.5,16.91,-28.25,-27.19,0,*41
1496034485.48,13358,17.56,74300.8,16.91,-29.13,-27.89,0,*43
1496034486.69,13359,17.56,74300.0,16.91,-28.97,-27.89,0,*4F
1496034487.95,13360,17.63,74304.0,16.89,-28.75,-27.55,0,*41
1496034489.21,13361,17.63,74304.8,16.89,-29.45,-28.47,0,*4E
1496034490.44,13362,17.63,74304.5,16.87,-29.61,-28.47,0,*45
1496034491.7,13363,17.56,74300.8,16.87,-29.01,-27.83,0,*45
1496034492.93,13364,17.63,74302.8,16.87,-29.95,-28.79,0,*45
1496034494.19,13365,17.63,74304.3,16.85,-30.39,-29.17,0,*41
1496034495.39,13366,17.63,74304.3,16.83,-30.27,-29.23,0,*4C
1496034496.65,13367,17.63,74306.3,16.81,-30.61,-29.45,0,*4D
1496034497.92,13368,17.56,74302.3,16.81,-30.51,-29.39,0,*4A